Weather in Petro-Slavyanka

Russia / Saint-Petersburg and Leningrad Oblast     59°48′13″N   30°31′09″E
temp.,
°C
wind,
m/s
gust,
m/s
humid.,
%
clouds,
%
prec.,
mm/h
press.,
hPa
HPBL,
m
14 june, mon
mon1400:00+12nw3897100 0.0 1010219
03:00+13wnw369466 0.0 1012201
06:00+12nw268999 0.0 1014184
09:00+18wnw2363100 0.0 1015652
12:00+19wnw4546100 0.0 10161556
15:00+20wnw4541100 0.0 10161471
18:00+18nw3450100 0.0 1016471
21:00+15se1164100 0.0 101411
15 june, tue
tue1500:00+12s3572100 0.0 101479
03:00+10s310707 0.0 1012170
06:00+13s51469100 0.0 1010414
09:00+18ssw61357100 0.0 1008882
12:00+19wsw61065100 0.0 10081425
15:00+20w4851100 0.1 10091660
18:00+18wnw5856100 0.0 1009999
21:00+14wnw376573 0.0 1010220
16 june, wed
wed1600:00+9wsw39772 0.0 1011189
03:00+9w39880 0.0 1013198
06:00+11w38780 0.0 1015350
09:00+16wnw575383 0.0 10161089
12:00+19wnw5945100 0.0 10171891
15:00+19wnw6945100 0.0 10171604
18:00+19wnw495028 0.0 10171079
21:00+16w2563100 0.0 1018136
17 june, thu
thu1700:00+13wsw366546 0.0 1019115
03:00+11wsw38705 0.0 1021145
06:00+12wsw26735 0.0 1022162
09:00+17wsw345615 0.0 1023648
12:00+21wnw34445 0.0 10231267
15:00+22nw343952 0.0 10241191
18:00+20nnw3448100 0.0 1024330
21:00+16nnw11644 0.0 102411
18 june, fri
fri1800:00+14s226527 0.0 102422
03:00+13ssw34775 0.0 102550
06:00+14ssw36714 0.0 1024148
09:00+21sw35595 0.0 1023498
12:00+25wsw46465 0.0 10231668
15:00+27wsw57380 0.0 10222091
18:00+26w58450 0.0 10201362
21:00+21sw37650 0.0 1020129